| time (UTC) | temp F | wind direction | speed MPH | gust MPH | rain 1hr in | rain 24hr in | rain mn in | humidity % | barometer mb |
| 20260505011107 | 56 | 216 | 1.0 | 2.0 | 0.00 | 0.00 | 0.00 | 72 | 1011.4 |
| 20260505010606 | 56 | 218 | 1.0 | 6.0 | 0.00 | 0.00 | 0.00 | 71 | 1011.2 |
| 20260505005606 | 57 | 211 | 1.0 | 5.0 | 0.00 | 0.00 | 0.00 | 70 | 1011.1 |
| 20260505005106 | 57 | 215 | 2.0 | 7.0 | 0.00 | 0.00 | 0.00 | 70 | 1011.1 |
| 20260505003606 | 57 | 232 | 2.0 | 3.0 | 0.00 | 0.00 | 0.00 | 68 | 1010.9 |
| 20260505003106 | 57 | 201 | 1.0 | 6.0 | 0.00 | 0.00 | 0.00 | 67 | 1010.9 |
| 20260505002606 | 58 | 226 | 1.0 | 6.0 | 0.00 | 0.00 | 0.00 | 67 | 1010.9 |
| 20260505002106 | 58 | 186 | 0.0 | 6.0 | 0.00 | 0.00 | 0.00 | 67 | 1010.7 |
| 20260505001606 | 58 | 179 | 1.0 | 5.0 | 0.00 | 0.00 | 0.00 | 66 | 1010.6 |
| 20260505001106 | 58 | 232 | 2.0 | 12.0 | 0.00 | 0.00 | 0.00 | 65 | 1010.5 |
| 20260505000107 | 59 | 238 | 0.0 | 3.0 | 0.00 | 0.00 | 0.00 | 64 | 1010.3 |
| 20260504235606 | 59 | 210 | 2.0 | 3.0 | 0.00 | 0.00 | 0.00 | 63 | 1010.2 |
| 20260504235106 | 59 | 216 | 3.0 | 7.0 | 0.00 | 0.00 | 0.00 | 62 | 1010.2 |
| 20260504234606 | 59 | 225 | 1.0 | 5.0 | 0.00 | 0.00 | 0.00 | 62 | 1010.1 |
| 20260504234106 | 60 | 217 | 2.0 | 5.0 | 0.00 | 0.00 | 0.00 | 62 | 1010.1 |
| 20260504233606 | 60 | 187 | 2.0 | 5.0 | 0.00 | 0.00 | 0.00 | 61 | 1010.0 |
| 20260504233106 | 60 | 198 | 0.0 | 3.0 | 0.00 | 0.00 | 0.00 | 61 | 1010.0 |
| 20260504232106 | 61 | 211 | 2.0 | 3.0 | 0.00 | 0.00 | 0.00 | 60 | 1009.9 |
| 20260504231106 | 61 | 193 | 2.0 | 8.0 | 0.00 | 0.00 | 0.00 | 58 | 1009.8 |
| 20260504230606 | 61 | 196 | 1.0 | 8.0 | 0.00 | 0.00 | 0.00 | 58 | 1009.8 |
| 20260504230107 | 62 | 209 | 1.0 | 8.0 | 0.00 | 0.00 | 0.00 | 58 | 1009.8 |
| 20260504225606 | 62 | 184 | 2.0 | 7.0 | 0.00 | 0.00 | 0.00 | 57 | 1009.7 |
| 20260504225106 | 62 | 187 | 3.0 | 8.0 | 0.00 | 0.00 | 0.00 | 57 | 1009.7 |
| 20260504224606 | 62 | 193 | 2.0 | 10.0 | 0.00 | 0.00 | 0.00 | 56 | 1009.7 |
| 20260504224105 | 63 | 206 | 3.0 | 12.0 | 0.00 | 0.00 | 0.00 | 55 | 1009.8 |
| 20260504223606 | 63 | 223 | 2.0 | 7.0 | 0.00 | 0.00 | 0.00 | 54 | 1009.7 |
| 20260504223106 | 63 | 216 | 4.0 | 10.0 | 0.00 | 0.00 | 0.00 | 54 | 1009.6 |
| 20260504222106 | 64 | 199 | 1.0 | 9.0 | 0.00 | 0.00 | 0.00 | 53 | 1009.7 |
| 20260504221606 | 64 | 188 | 3.0 | 9.0 | 0.00 | 0.00 | 0.00 | 53 | 1009.8 |
| 20260504220606 | 65 | 207 | 2.0 | 7.0 | 0.00 | 0.00 | 0.00 | 52 | 1009.7 |
| 20260504220106 | 66 | 222 | 2.0 | 5.0 | 0.00 | 0.00 | 0.00 | 52 | 1009.9 |
| 20260504215106 | 67 | 185 | 2.0 | 10.0 | 0.00 | 0.00 | 0.00 | 49 | 1009.7 |
| 20260504214606 | 67 | 195 | 2.0 | 5.0 | 0.00 | 0.00 | 0.00 | 47 | 1009.8 |
| 20260504214106 | 68 | 198 | 2.0 | 9.0 | 0.00 | 0.00 | 0.00 | 48 | 1009.7 |
| 20260504213606 | 68 | 188 | 2.0 | 12.0 | 0.00 | 0.00 | 0.00 | 47 | 1009.7 |
| 20260504213106 | 69 | 229 | 2.0 | 6.0 | 0.00 | 0.00 | 0.00 | 46 | 1009.7 |
| 20260504212606 | 69 | 213 | 2.0 | 7.0 | 0.00 | 0.00 | 0.00 | 46 | 1009.6 |
| 20260504212106 | 69 | 191 | 2.0 | 9.0 | 0.00 | 0.00 | 0.00 | 45 | 1009.6 |
| 20260504211606 | 69 | 185 | 1.0 | 7.0 | 0.00 | 0.00 | 0.00 | 45 | 1009.5 |
| 20260504211106 | 69 | 215 | 3.0 | 7.0 | 0.00 | 0.00 | 0.00 | 43 | 1009.6 |
| 20260504210606 | 69 | 192 | 5.0 | 12.0 | 0.00 | 0.00 | 0.00 | 44 | 1009.6 |
| 20260504205606 | 70 | 186 | 3.0 | 7.0 | 0.00 | 0.00 | 0.00 | 44 | 1009.5 |
| 20260504205106 | 70 | 190 | 2.0 | 9.0 | 0.00 | 0.00 | 0.00 | 45 | 1009.4 |
| 20260504204106 | 70 | 184 | 3.0 | 12.0 | 0.00 | 0.00 | 0.00 | 43 | 1009.6 |
| 20260504203106 | 70 | 202 | 3.0 | 7.0 | 0.00 | 0.00 | 0.00 | 43 | 1009.5 |
| 20260504202606 | 70 | 211 | 3.0 | 10.0 | 0.00 | 0.00 | 0.00 | 44 | 1009.6 |
| 20260504202106 | 70 | 198 | 3.0 | 15.0 | 0.00 | 0.00 | 0.00 | 43 | 1009.5 |
| 20260504201606 | 70 | 206 | 5.0 | 9.0 | 0.00 | 0.00 | 0.00 | 40 | 1009.5 |
| 20260504201105 | 71 | 182 | 2.0 | 6.0 | 0.00 | 0.00 | 0.00 | 41 | 1009.5 |
| 20260504200606 | 71 | 190 | 4.0 | 12.0 | 0.00 | 0.00 | 0.00 | 40 | 1009.6 |
| 20260504200106 | 71 | 190 | 5.0 | 12.0 | 0.00 | 0.00 | 0.00 | 41 | 1009.6 |
| 20260504194606 | 71 | 175 | 4.0 | 12.0 | 0.00 | 0.00 | 0.00 | 40 | 1009.6 |
| 20260504193605 | 72 | 200 | 3.0 | 9.0 | 0.00 | 0.00 | 0.00 | 39 | 1009.6 |
| 20260504193106 | 72 | 154 | 1.0 | 5.0 | 0.00 | 0.00 | 0.00 | 41 | 1009.7 |
| 20260504192606 | 71 | 185 | 4.0 | 13.0 | 0.00 | 0.00 | 0.00 | 39 | 1009.7 |
| 20260504191106 | 71 | 195 | 6.0 | 12.0 | 0.00 | 0.00 | 0.00 | 39 | 1009.7 |
| 20260504190606 | 71 | 200 | 3.0 | 12.0 | 0.00 | 0.00 | 0.00 | 38 | 1009.8 |
| 20260504190106 | 71 | 223 | 3.0 | 8.0 | 0.00 | 0.00 | 0.00 | 39 | 1009.8 |
| 20260504185606 | 72 | 187 | 4.0 | 10.0 | 0.00 | 0.00 | 0.00 | 37 | 1009.7 |
| 20260504185105 | 72 | 187 | 4.0 | 12.0 | 0.00 | 0.00 | 0.00 | 39 | 1009.8 |
| 20260504184606 | 72 | 183 | 5.0 | 10.0 | 0.00 | 0.00 | 0.00 | 37 | 1009.8 |
| 20260504184106 | 72 | 186 | 6.0 | 12.0 | 0.00 | 0.00 | 0.00 | 36 | 1009.8 |
| 20260504183606 | 73 | 193 | 3.0 | 9.0 | 0.00 | 0.00 | 0.00 | 37 | 1009.8 |
| 20260504183107 | 73 | 182 | 3.0 | 9.0 | 0.00 | 0.00 | 0.00 | 37 | 1009.9 |
| 20260504182605 | 72 | 187 | 2.0 | 6.0 | 0.00 | 0.00 | 0.00 | 38 | 1010.1 |
| 20260504182105 | 72 | 171 | 3.0 | 10.0 | 0.00 | 0.00 | 0.00 | 41 | 1010.1 |
| 20260504181605 | 71 | 220 | 2.0 | 10.0 | 0.00 | 0.00 | 0.00 | 38 | 1010.1 |
| 20260504181105 | 71 | 216 | 3.0 | 8.0 | 0.00 | 0.00 | 0.00 | 37 | 1010.2 |
| 20260504180606 | 71 | 208 | 3.0 | 10.0 | 0.00 | 0.00 | 0.00 | 36 | 1010.2 |
| 20260504180106 | 71 | 192 | 2.0 | 9.0 | 0.00 | 0.00 | 0.00 | 37 | 1010.2 |
| 20260504175605 | 72 | 201 | 3.0 | 8.0 | 0.00 | 0.00 | 0.00 | 34 | 1010.4 |
| 20260504174606 | 72 | 191 | 5.0 | 13.0 | 0.00 | 0.00 | 0.00 | 37 | 1010.6 |
| 20260504174106 | 71 | 192 | 4.0 | 14.0 | 0.00 | 0.00 | 0.00 | 38 | 1010.5 |
| 20260504173605 | 71 | 182 | 3.0 | 17.0 | 0.00 | 0.00 | 0.00 | 37 | 1010.6 |
| 20260504173106 | 71 | 181 | 4.0 | 14.0 | 0.00 | 0.00 | 0.00 | 38 | 1010.8 |
| 20260504172606 | 71 | 183 | 5.0 | 13.0 | 0.00 | 0.00 | 0.00 | 37 | 1010.8 |
| 20260504172105 | 71 | 171 | 4.0 | 12.0 | 0.00 | 0.00 | 0.00 | 37 | 1010.8 |
| 20260504171607 | 71 | 192 | 4.0 | 10.0 | 0.00 | 0.00 | 0.00 | 38 | 1010.7 |
| 20260504171105 | 71 | 190 | 3.0 | 12.0 | 0.00 | 0.00 | 0.00 | 37 | 1010.9 |
| 20260504170605 | 72 | 189 | 5.0 | 21.0 | 0.00 | 0.00 | 0.00 | 36 | 1010.9 |
| 20260504160106 | 70 | 210 | 5.0 | 12.0 | 0.00 | 0.00 | 0.00 | 38 | 1011.5 |
| 20260504151106 | 68 | 213 | 3.0 | 16.0 | 0.00 | 0.00 | 0.00 | 41 | 1012.2 |
| 20260504150606 | 68 | 215 | 4.0 | 17.0 | 0.00 | 0.00 | 0.00 | 36 | 1012.3 |
| 20260504141106 | 66 | 234 | 5.0 | 12.0 | 0.00 | 0.00 | 0.00 | 39 | 1012.6 |
| 20260504140105 | 66 | 166 | 2.0 | 7.0 | 0.00 | 0.00 | 0.00 | 40 | 1012.6 |
| 20260504130605 | 61 | 165 | 2.0 | 9.0 | 0.00 | 0.00 | 0.00 | 48 | 1013.2 |
| 20260504120106 | 48 | 165 | 1.0 | 3.0 | 0.00 | 0.00 | 0.00 | 79 | 1013.6 |
| 20260504110605 | 40 | 214 | 0.0 | 0.0 | 0.00 | 0.00 | 0.00 | 90 | 1013.6 |
| 20260504110106 | 40 | 214 | 0.0 | 1.0 | 0.00 | 0.00 | 0.00 | 90 | 1013.6 |
| 20260504100106 | 38 | 214 | 0.0 | 3.0 | 0.00 | 0.00 | 0.00 | 88 | 1013.2 |
| 20260504090105 | 39 | 214 | 0.0 | 0.0 | 0.00 | 0.00 | 0.00 | 87 | 1013.0 |
| 20260504081105 | 38 | 232 | 0.0 | 1.0 | 0.00 | 0.00 | 0.00 | 88 | 1012.6 |
| 20260504080605 | 38 | 232 | 0.0 | 1.0 | 0.00 | 0.00 | 0.00 | 89 | 1012.6 |
| 20260504070106 | 37 | 232 | 0.0 | 0.0 | 0.00 | 0.00 | 0.00 | 87 | 1012.4 |
| 20260504060105 | 38 | 232 | 0.0 | 0.0 | 0.00 | 0.00 | 0.00 | 84 | 1012.3 |
| 20260504050605 | 39 | 232 | 0.0 | 0.0 | 0.00 | 0.00 | 0.00 | 83 | 1012.3 |
| 20260504045605 | 39 | 232 | 0.0 | 0.0 | 0.00 | 0.00 | 0.00 | 82 | 1012.3 |
| 20260504045105 | 39 | 232 | 0.0 | 0.0 | 0.00 | 0.00 | 0.00 | 81 | 1012.3 |
| 20260504044605 | 39 | 232 | 0.0 | 0.0 | 0.00 | 0.00 | 0.00 | 81 | 1012.3 |
| 20260504044105 | 39 | 232 | 0.0 | 0.0 | 0.00 | 0.00 | 0.00 | 81 | 1012.3 |
| 20260504043605 | 39 | 232 | 0.0 | 0.0 | 0.00 | 0.00 | 0.00 | 81 | 1012.3 |
| 20260504043105 | 40 | 232 | 0.0 | 0.0 | 0.00 | 0.00 | 0.00 | 81 | 1012.3 |
| 20260504042606 | 40 | 232 | 0.0 | 0.0 | 0.00 | 0.00 | 0.00 | 81 | 1012.3 |
| 20260504042105 | 40 | 232 | 0.0 | 0.0 | 0.00 | 0.00 | 0.00 | 81 | 1012.3 |
| 20260504041105 | 40 | 232 | 0.0 | 0.0 | 0.00 | 0.00 | 0.00 | 80 | 1012.2 |
| 20260504040605 | 40 | 232 | 0.0 | 2.0 | 0.00 | 0.00 | 0.00 | 80 | 1012.2 |
| 20260504040105 | 40 | 232 | 0.0 | 2.0 | 0.00 | 0.00 | 0.00 | 80 | 1012.2 |
| 20260504035605 | 40 | 232 | 0.0 | 2.0 | 0.00 | 0.00 | 0.00 | 80 | 1012.2 |
| 20260504035105 | 41 | 232 | 0.0 | 0.0 | 0.00 | 0.00 | 0.00 | 80 | 1012.2 |
| 20260504034605 | 41 | 232 | 0.0 | 0.0 | 0.00 | 0.00 | 0.00 | 80 | 1012.1 |
| 20260504034104 | 41 | 232 | 0.0 | 0.0 | 0.00 | 0.00 | 0.00 | 79 | 1012.1 |
| 20260504033605 | 41 | 232 | 0.0 | 0.0 | 0.00 | 0.00 | 0.00 | 79 | 1012.1 |
| 20260504033105 | 41 | 232 | 0.0 | 1.0 | 0.00 | 0.00 | 0.00 | 79 | 1012.1 |
| 20260504032605 | 41 | 232 | 0.0 | 1.0 | 0.00 | 0.00 | 0.00 | 78 | 1012.0 |
| 20260504032105 | 41 | 232 | 0.0 | 1.0 | 0.00 | 0.00 | 0.00 | 77 | 1012.0 |
| 20260504031604 | 41 | 232 | 1.0 | 1.0 | 0.00 | 0.00 | 0.00 | 77 | 1012.1 |
| 20260504031105 | 41 | 232 | 1.0 | 2.0 | 0.00 | 0.00 | 0.00 | 76 | 1012.1 |
| 20260504030605 | 41 | 232 | 0.0 | 1.0 | 0.00 | 0.00 | 0.00 | 76 | 1012.1 |
| 20260504030105 | 41 | 232 | 0.0 | 1.0 | 0.00 | 0.00 | 0.00 | 77 | 1012.0 |
| 20260504025605 | 42 | 232 | 1.0 | 2.0 | 0.00 | 0.00 | 0.00 | 76 | 1011.9 |
| 20260504025107 | 42 | 232 | 1.0 | 2.0 | 0.00 | 0.00 | 0.00 | 75 | 1011.9 |
| 20260504024604 | 42 | 232 | 1.0 | 2.0 | 0.00 | 0.00 | 0.00 | 74 | 1011.9 |
| 20260504024105 | 42 | 232 | 1.0 | 2.0 | 0.00 | 0.00 | 0.00 | 74 | 1012.0 |
| 20260504023104 | 43 | 232 | 1.0 | 2.0 | 0.00 | 0.00 | 0.00 | 72 | 1012.0 |
| 20260504022605 | 43 | 232 | 1.0 | 2.0 | 0.00 | 0.00 | 0.00 | 72 | 1012.0 |
| 20260504022105 | 43 | 232 | 1.0 | 2.0 | 0.00 | 0.00 | 0.00 | 71 | 1012.0 |
| 20260504021105 | 44 | 232 | 1.0 | 1.0 | 0.00 | 0.00 | 0.00 | 69 | 1011.9 |
| 20260504020605 | 44 | 232 | 0.0 | 1.0 | 0.00 | 0.00 | 0.00 | 67 | 1011.9 |
| 20260504015605 | 45 | 232 | 0.0 | 1.0 | 0.00 | 0.00 | 0.00 | 66 | 1011.9 |
| 20260504014604 | 45 | 232 | 0.0 | 1.0 | 0.00 | 0.00 | 0.00 | 65 | 1011.8 |
| 20260504014105 | 45 | 232 | 0.0 | 1.0 | 0.00 | 0.00 | 0.00 | 64 | 1011.9 |
| 20260504013605 | 45 | 232 | 0.0 | 0.0 | 0.00 | 0.00 | 0.00 | 63 | 1011.8 |
| 20260504012105 | 46 | 232 | 0.0 | 0.0 | 0.00 | 0.00 | 0.00 | 62 | 1011.6 |
| 20260504011604 | 46 | 232 | 0.0 | 1.0 | 0.00 | 0.00 | 0.00 | 61 | 1011.5 |